DELTA 1 DEB

Satellite information

Favourite Embed

Satellite Type and Status

DEBRISIN ORBIT

Key statistics

Satellite DELTA 1 DEB at a glance.

Uptime

17291

Days in orbit

Revolutions

≈ 14.5

Per day

Orbit

SSO

Sun Synchronous Orbit

Inclination

99.1

Latest

Satellite identification and parameters

Extended collection of information and parameters for DELTA 1 DEB.

Object identification

Identified? True

Debris? True

Object name: DELTA 1 DEB

International designator: 1978-026FK

Object number (NORAD): 13572

Object ID (CCSDS): 13572

Country: UNITED STATES OF AMERICA (US)

Current information (Y/N): Y

RCS size: SMALL

Orbital parameters

Period: 99.336 minutes

Inclination: 99.0513 deg

SMA: 7104.99 km

Apoapsis: 798.309 km

Periapsis: 655.4 km

RAAN: 318.0348 deg

Eccentricy: 0.0100569

Argument of periapsis: 112.711 deg

Mean anomaly: 278.2056 deg

Mean motion: 14.49631436 rev/day

Mean motion (dot): 0.0000641 rev/day2

B* drag term: 0.0015757 1/REarth

Two-line elements (TLE)

Creation date: July 6, 2025, 6:05 p.m.

Reference frame: TEME

Reference center: EARTH

Epoch: July 6, 2025, 7:43 a.m. UTC

TLE line 0: 0 DELTA 1 DEB

TLE line 1: 1 13572U 78026FK 25187.32169084 .00006410 00000-0 15757-2 0 9995

TLE line 2: 2 13572 99.0513 318.0348 0100569 112.7110 278.2056 14.49631436263763

Live tracking on map

Real-time ground track for satellite DELTA 1 DEB.

In-orbit conjunctions

A list of the most updated potential collisions computed for object DELTA 1 DEB.

Target Orbit TCA Probability of collision Miss distance Type
CZ-6A DEB LEO 2025-01-18 20:28:43 0.0002204683 215.0 (m) DEBRIS
FENGYUN 1C DEB SSO 2024-11-15 13:59:06 0.0002208573 911.0 (m) DEBRIS

Associated space launch

Earth observation satellite

DELTA 1 DEB was lifted into orbit during the mission ‘Delta 2910 | Landsat 3’, on board a Delta 2910 space rocket.

The launch took place on March 5, 1978, 5:54 p.m. from Space Launch Complex 2W.

For more information about the launch, click the button.

Launch to space Delta 2910 | Landsat 3
Delta 2910 | Landsat 3

Agency: N/A

Status: Launch Successful

Launch date: March 5, 1978, 5:54 p.m. UTC

Rocket: Delta 2910

Launch pad: Space Launch Complex 2W

Location: Vandenberg SFB, CA, USA

...

Latest news about this satellite

There are no fresh news available about this satellite. Check back as we update our databases every day.


Newsletter sign-up

Weekly statistics, charts and insights to help you stay on top of the space industry.